Tracking 18852 objects as of 24-Nov-2017
HD Live streaming from Space Station
objects crossing your sky now

FENGYUN 1C DEB

Track FENGYUN 1C DEB now!
10-day predictions


NORAD ID: 35160
Int'l Code: 1999-025DMQ
Perigee: 660.8 km
Apogee: 932.5 km
Inclination: 99.1 °
Period: 100.7 minutes
Semi major axis: 7167 km
RCS: 0.0084 m2 (small)
Launch date: May 10, 1999
Source: People's Republic of China (PRC)
Launch site: Taiyaun Space Center, China (TSC)

Note: This is SATELLITE DEBRIS
aabbcc
Your satellite tracking list
Your tracking list is empty




NASA's NSSDC Master Catalog

Two Line Element Set (TLE):
1 35160U 99025DMQ 17327.48755441 +.00000222 +00000-0 +86245-4 0  9993
2 35160 099.1490 226.2919 0189573 122.1963 239.7758 14.30667972228364
Source of the keplerian elements: AFSPC